This demonstration page uses our WeatherBlox Daily Observations layout. Learn more.

Left ArrowRight Arrow

Hourly Observations for January 31, 2017

Temp ( °F °C ) Dew Point ( °F °C ) Humidity (%) Winds ( mph kmh ) Pressure ( in mb ) Visibility ( mi km ) Precip ( " mm )
12:59 am 00:59 Clear 28 -2.2 19 -7.2 69 69 Calm 30.07 1018 10 16 0.00 0.00
1:59 am 01:59 Clear 28 -2.2 19 -7.2 69 69 S 5 7 30.08 1019 10 16 0.00 0.00
2:59 am 02:59 Clear 29 -1.7 19 -7.2 66 66 S 3 6 30.08 1019 10 16 0.00 0.00
3:59 am 03:59 Clear 27 -2.8 20 -6.7 75 75 Calm 30.07 1018 10 16 0.00 0.00
4:59 am 04:59 Partly Cloudy 29 -1.7 18 -7.8 63 63 SSE 5 7 30.06 1018 10 16 0.00 0.00
5:59 am 05:59 Clear 31 -0.6 17 -8.3 56 56 SE 7 11 30.02 1017 10 16 0.00 0.00
6:59 am 06:59 Mostly Clear 33 0.6 19 -7.2 56 56 SE 8 13 29.99 1016 10 16 0.00 0.00
7:59 am 07:59 Partly Cloudy 36 2.2 24 -4.4 62 62 S 9 15 29.97 1015 10 16 0.00 0.00
8:59 am 08:59 Partly Cloudy 43 6.1 25 -3.9 49 49 SSW 13 20 29.95 1014 10 16 0.00 0.00
9:59 am 09:59 Mostly Cloudy 46 7.8 27 -2.8 47 47 SSW 12 19 29.93 1014 10 16 0.00 0.00
10:59 am 10:59 Mostly Cloudy 51 10.6 29 -1.7 43 43 SW 15 24 29.89 1012 10 16 0.00 0.00
11:59 am 11:59 Mostly Cloudy 55 12.8 30 -1.1 38 38 SSW 13 20 29.85 1011 10 16 0.00 0.00
12:59 pm 12:59 Mostly Cloudy 58 14.4 32 0 38 38 SW 13 20 29.81 1010 10 16 0.00 0.00
1:59 pm 13:59 Mostly Cloudy 61 16.1 33 0.6 35 35 SW 16 26 29.78 1008 10 16 0.00 0.00
2:59 pm 14:59 Mostly Cloudy 62 16.7 32 0 32 32 SW 15 24 29.75 1007 10 16 0.00 0.00
3:59 pm 15:59 Mostly Cloudy 63 17.2 33 0.6 33 33 SW 15 24 29.76 1008 10 16 0.00 0.00
4:59 pm 16:59 Partly Cloudy 63 17.2 33 0.6 33 33 SW 14 22 29.79 1009 10 16 0.00 0.00
5:59 pm 17:59 Partly Cloudy 62 16.7 33 0.6 34 34 SW 12 19 29.81 1010 10 16 0.00 0.00
7:59 pm 19:59 Partly Cloudy 61 16.1 33 0.6 35 35 SW 14 22 29.85 1011 10 16 0.00 0.00
8:59 pm 20:59 Clear 63 17.2 30 -1.1 29 29 WSW 14 22 29.86 1011 10 16 0.00 0.00
9:59 pm 21:59 Clear 62 16.7 30 -1.1 30 30 WSW 13 20 29.90 1012 10 16 0.00 0.00
10:59 pm 22:59 Partly Cloudy 60 15.6 30 -1.1 32 32 W 12 19 29.92 1013 10 16 0.00 0.00
11:59 pm 23:59 Mostly Clear 56 13.3 29 -1.7 36 36 SSW 6 9 29.94 1014 10 16 0.00 0.00

Powered by AerisWeather